This is the latest recevied weather packets stored in our database for station/object S56WDN-10. If no packets are shown the sender has not sent any weather packets the latest 10 day(s).
| Time | Temp. | Humidity | Pressure | Rain* | Wind** | Luminosity | Snow |
|---|---|---|---|---|---|---|---|
| 1778157712 | 21.11° C | 57% | 1012.2 hPa | 0 mm | - | - | - |
| 1778157412 | 21.11° C | 58% | 1012 hPa | 0 mm | - | - | - |
| 1778157112 | 21.11° C | 59% | 1012.2 hPa | 0 mm | - | - | - |
| 1778156812 | 21.11° C | 59% | 1012.3 hPa | 0 mm | - | - | - |
| 1778156512 | 20.56° C | 59% | 1012.3 hPa | 0 mm | - | - | - |
| 1778156212 | 20.56° C | 59% | 1012.4 hPa | 0 mm | - | - | - |
| 1778155912 | 20.56° C | 59% | 1012.4 hPa | 0 mm | - | - | - |
| 1778155612 | 20.56° C | 58% | 1012.4 hPa | 0 mm | - | - | - |
| 1778155312 | 21.11° C | 58% | 1012.5 hPa | 0 mm | - | - | - |
| 1778155012 | 21.11° C | 58% | 1012.5 hPa | 0 mm | - | - | - |
| 1778154712 | 21.67° C | 59% | 1012.6 hPa | 0 mm | - | - | - |
| 1778154412 | 21.67° C | 59% | 1012.6 hPa | 0 mm | - | - | - |
| 1778154112 | 21.67° C | 59% | 1012.5 hPa | 0 mm | - | - | - |
| 1778153812 | 21.67° C | 59% | 1012.5 hPa | 0 mm | - | - | - |
| 1778153512 | 21.67° C | 58% | 1012.5 hPa | 0 mm | - | - | - |
| 1778153212 | 21.67° C | 57% | 1012.5 hPa | 0 mm | - | - | - |
| 1778152912 | 22.22° C | 56% | 1012.5 hPa | 0 mm | - | - | - |
| 1778152612 | 22.22° C | 55% | 1012.6 hPa | 0 mm | - | - | - |
| 1778152312 | 22.78° C | 55% | 1012.6 hPa | 0 mm | - | - | - |
| 1778152012 | 22.78° C | 54% | 1012.6 hPa | 0 mm | - | - | - |
| 1778151712 | 22.78° C | 54% | 1012.6 hPa | 0 mm | - | - | - |
| 1778151412 | 22.22° C | 57% | 1012.6 hPa | 0 mm | - | - | - |
| 1778151112 | 22.22° C | 57% | 1012.5 hPa | 0 mm | - | - | - |
| 1778150812 | 21.11° C | 57% | 1012.6 hPa | 0 mm | - | - | - |
| 1778150512 | 21.11° C | 58% | 1012.6 hPa | 0 mm | - | - | - |
* Rain latest hour (hover to see other rain measurements)
** Current wind speed in m/s (hover to see current wind gust speed)